Find Local Weather

World > North America > United States > Texas

Dallas, Texas Regional Weather

Lat: 32.79N, Lon: 96.77W
Wx Zone: TXZ119
Warning FLW WEATHER ALERT - (More Info. Click Here) Warning
Feedback
Expires:201806200300;;806576
ASUS44 KFWD 200203
RWRTX 
NORTH TEXAS HOURLY WEATHER ROUNDUP
NATIONAL WEATHER SERVICE FORT WORTH TX
900 PM CDT TUE JUN 19 2018

NOTE: "FAIR" INDICATES FEW OR NO CLOUDS BELOW 12,000 FEET WITH NO
SIGNIFICANT WEATHER AND/OR OBSTRUCTIONS TO VISIBILITY.


TXZ118-119-200300-
DALLAS/FORT WORTH METROPLEX
  
CITY           SKY/WX    TMP DP  RH WIND       PRES   REMARKS
DFW AIRPORT    CLOUDY    81  69  67 SE10      29.86F                  
DALLAS LOVE    MOCLDY    83  69  62 SE14      29.87F                  
FTW MEACHAM    MOCLDY   N/A N/A N/A E12       29.87S                  
DAL-EXECUTIVE  FAIR      82  68  62 SE10      29.87S                  
FTW-ALLIANCE   MOCLDY    82  70  66 SE10      29.87S                  
FTW-NAS-JRB    CLOUDY    82  69  64 SE10      29.87F                  
FTW-SPINKS     FAIR      79  71  76 E6        29.89F                  
ARLINGTON      FAIR      81  71  71 E12       29.87F                  
GRAND PRAIRIE  CLEAR     81  68  65 E9        29.89S                  
MESQUITE       CLOUDY    82  66  57 SE14G23   29.89S                  
LANCASTER      FAIR      81  67  63 SE8       29.89S                  
$$


SKY/WX - Weather  TMP - Temperature  DP - Dewpoint  RH - Relative Humidity
WIND - Wind Direction/Speed PRES - Barometric Pressure